Regional Weather Roundup
Issued by NWS State College, PA

Home | Current Version | Previous Version | Text Only | Print | Product List | Glossary On
Versions: 1 2 3 4 5 6 7 8 9 10 11 12 13 14 15 16 17 18 19 20 21 22 23 24 25 26 27 28 29 30 31 32 33 34 35 36 37 38 39 40 41 42 43 44 45 46 47 48 49 50
000
ASUS41 KCTP 051903
RWRCTP

REGIONAL WEATHER ROUNDUP
NATIONAL WEATHER SERVICE STATE COLLEGE PA
300 PM EDT SUN JUL 05 2015

Note: "fair" indicates few or no clouds below 12,000 feet with no
significant weather and/or obstructions to visibility.

* = STATION THAT DOES NOT REPORT PRECIPITATION /E.G. RAIN...SNOW...ETC/
    THUNDER OR FOG.

PAZ002>004-007>009-013>016-020>023-029>032-052000-
WESTERN PENNSYLVANIA

CITY           SKY/WX    TMP DP  RH WIND       PRES   REMARKS
ERIE           MOSUNNY   76  55  48 N7        30.14F
MEADVILLE      MOSUNNY   78  53  41 VRB7      30.15F
FRANKLIN*      MOSUNNY   79  54  41 E7        30.17S
NEW CASTLE     FAIR      80  53  39 NE7       30.14F
BEAVER COUNTY  NOT AVBL
BUTLER*        MOSUNNY   77  55  47 SE6       30.16F
PITTSBURGH INT PTSUNNY   80  57  45 E6        30.12F
PITTSBURGH     MOSUNNY   80  53  39 MISG      30.12F
INDIANA*       SUNNY     79  59  50 N5        30.17F
LATROBE        NOT AVBL
WASHINGTON CO* NOT AVBL
$$

PAZ004>006-010>012-017>019-024>028-033>037-041-042-045-046-049>053-052000-
CENTRAL PENNSYLVANIA

CITY           SKY/WX    TMP DP  RH WIND       PRES   REMARKS
BRADFORD       SUNNY     76  52  43 SE5       30.18F
DUBOIS         SUNNY     80  50  34 NE6       30.17F
CLEARFIELD     SUNNY     77  55  46 NE3       30.17F
JOHNSTOWN      MOSUNNY   75  58  55 VRB7      30.17F
ALTOONA        MOSUNNY   78  60  53 VRB3      30.17F
STATE COLLEGE  SUNNY     75  63  64 CALM      30.17F
WILLIAMSPORT   MOSUNNY   80  61  52 VRB3      30.12F
SELINSGROVE    MOSUNNY   78  64  61 CALM      30.15F
FT INDIANTOWN  CLOUDY    77  65  66 VRB1      30.14F
CAPITAL CITY   MOSUNNY   79  64  60 CALM      30.13F
HARRISBURG     CLOUDY    79  67  66 CALM      30.13F
YORK           PTSUNNY   80  67  64 E5        30.14F
$$

PAZ038>040-043-044-047-048-054-055-060>062-067>071-052000-
EASTERN PENNSYLVANIA

CITY           SKY/WX    TMP DP  RH WIND       PRES   REMARKS
SCRANTON       NOT AVBL
MOUNT POCONO   NOT AVBL
ALLENTOWN      MOSUNNY   82  61  48 CALM      30.13F
QUAKERTOWN*    PTCLDY    81  64  57 CALM      30.15F
READING        MOSUNNY   80  62  54 CALM      30.12F
LANCASTER      MOSUNNY   78  65  63 W3        30.14F
COATESVILLE    PTCLDY    77  66  69 S3        30.15F
POTTSTOWN      MOSUNNY   79  64  60 CALM      30.15F
BLUE BELL      PTSUNNY   82  66  57 CALM      30.13F
DOYLESTOWN     MOSUNNY   80  62  54 W6        30.13F
WILLOW GROVE   NOT AVBL
NORTH PHILA    MOSUNNY   84  60  44 CALM      30.13F
PHILADELPHIA   MOSUNNY   83  62  49 VRB6      30.12F
$$



USA.gov is the U.S. government's official web portal to all federal, state and local government web resources and services.